COSMOS 2251 DEB

Satellite information

Favourite Embed

Satellite Type and Status

DEBRISIN ORBIT

Key statistics

Satellite COSMOS 2251 DEB at a glance.

Uptime

11708

Days in orbit

Revolutions

≈ 14.3

Per day

Orbit

LEO

Low Earth Orbit

Inclination

74.0

Latest

Satellite identification and parameters

Extended collection of information and parameters for COSMOS 2251 DEB.

Object identification

Identified? True

Debris? True

Object name: COSMOS 2251 DEB

International designator: 1993-036BCN

Object number (NORAD): 36528

Object ID (CCSDS): 36528

Country: COMMONWEALTH OF INDEPENDENT STATES (CIS)

Current information (Y/N): Y

RCS size: SMALL

Orbital parameters

Period: 100.719 minutes

Inclination: 74.018 deg

SMA: 7170.811 km

Apoapsis: 855.173 km

Periapsis: 730.18 km

RAAN: 82.6022 deg

Eccentricy: 0.0087154

Argument of periapsis: 171.045 deg

Mean anomaly: 189.228 deg

Mean motion: 14.29717772 rev/day

Mean motion (dot): 0.00000838 rev/day2

B* drag term: 0.00032316 1/REarth

Two-line elements (TLE)

Creation date: July 2, 2025, 5:47 p.m.

Reference frame: TEME

Reference center: EARTH

Epoch: July 2, 2025, 9:34 a.m. UTC

TLE line 0: 0 COSMOS 2251 DEB

TLE line 1: 1 36528U 93036BCN 25183.39920076 .00000838 00000-0 32316-3 0 9997

TLE line 2: 2 36528 74.0180 82.6022 0087154 171.0450 189.2280 14.29717772620925

Live tracking on map

Real-time ground track for satellite COSMOS 2251 DEB.

In-orbit conjunctions

A list of the most updated potential collisions computed for object COSMOS 2251 DEB.

Target Orbit TCA Probability of collision Miss distance Type
FENGYUN 1C DEB SSO 2025-03-01 01:03:08 0.0003094224 62.0 (m) DEBRIS
CZ-6A DEB LEO 2024-11-06 01:43:23 0.0002435826 244.0 (m) DEBRIS

Associated space launch

Military communications satellite. Destroyed in a collision with Iridium 33.

COSMOS 2251 DEB was lifted into orbit during the mission ‘Kosmos-3M | Strela-2M 51’, on board a Kosmos-3M space rocket.

The launch took place on June 16, 1993, 4:17 a.m. from 132/1 (132L).

For more information about the launch, click the button.

Launch to space Kosmos-3M | Strela-2M 51
Kosmos-3M | Strela-2M 51

Agency: N/A

Status: Launch Successful

Launch date: June 16, 1993, 4:17 a.m. UTC

Rocket: Kosmos-3M

Launch pad: 132/1 (132L)

Location: Plesetsk Cosmodrome, Russian Federation

...

Latest news about this satellite

There are no fresh news available about this satellite. Check back as we update our databases every day.


Newsletter sign-up

Weekly statistics, charts and insights to help you stay on top of the space industry.